Weather in Dubovskaya

Russia / Chechen Republic     43°47′24″N   46°33′09″E
temp.,
°C
wind,
m/s
gust,
m/s
humid.,
%
clouds,
%
prec.,
mm/h
press.,
hPa
HPBL,
m
14 june, mon
mon1400:00+18wsw35961 0.0 1012103
03:00+17w36960 0.0 1012121
06:00+19w47890 0.0 1012351
09:00+24wnw45581 0.0 10121072
12:00+28nw44430 0.0 10101570
15:00+30nnw33360 0.0 10101809
18:00+29nnw21390 0.0 10101529
21:00+20ese36770 0.0 101095
15 june, tue
tue1500:00+20se35770 0.0 100992
03:00+19e34770 0.0 100862
06:00+22ene356642 0.0 1008192
09:00+29ene4544100 0.0 10081429
12:00+31ese5435100 0.0 10081761
15:00+32ese44341 0.0 10071848
18:00+29se55410 0.0 1008909
21:00+22ese35650 0.0 101088
16 june, wed
wed1600:00+20se22760 0.0 100929
03:00+19ese22760 0.0 101025
06:00+22ese46660 0.0 1010217
09:00+30e67400 0.0 10091081
12:00+33ese89320 0.0 10071433
15:00+33ese910320 0.0 10061239
18:00+28e711410 0.0 1007800
21:00+22ene411700 0.0 1008287
17 june, thu
thu1700:00+20e37861 0.0 1007150
03:00+19e35880 0.0 100682
06:00+23ese366996 0.0 1006247
09:00+30ese453698 0.0 10051022
12:00+35se34270 0.0 10041671
15:00+37w64297 0.0 10052239
18:00+32wsw111244100 0.0 10071057
21:00+26w9156651 0.1 1011623
18 june, fri
fri1800:00+22wsw713801 2.2 1012437
03:00+21wsw814820 2.4 1013496
06:00+22w813750 0.0 1013595
09:00+27w810540 0.0 10141028
12:00+33w66350 0.0 10131832
15:00+34ne753895 0.0 10132171
18:00+26ene5758100 0.3 1016492
21:00+23e3565100 0.6 1019122